Date,TemperatureHighF,TemperatureAvgF,TemperatureLowF,DewpointHighF,DewpointAvgF,DewpointLowF,HumidityHigh,HumidityAvg,HumidityLow,PressureMaxIn,PressureMinIn,WindSpeedMaxMPH,WindSpeedAvgMPH,GustSpeedMaxMPH,PrecipitationSumIn
2013-1-1,33.0,28.1,23.0,33.0,26.6,20.0,99,94,86,0.00,40.00,11,6,17,0.00
2013-1-2,25.0,20.6,17.0,23.0,18.6,15.0,96,91,85,0.00,40.00,11,5,16,0.00
2013-1-3,32.0,21.1,9.0,28.0,19.8,9.0,99,93,76,0.00,40.00,15,5,25,0.00
2013-1-4,32.0,28.8,26.0,28.0,24.9,22.0,96,85,69,0.00,40.00,19,10,30,0.00
2013-1-5,37.0,31.2,25.0,32.0,28.0,23.0,95,88,75,0.00,40.00,12,5,20,0.00
2013-1-6,38.0,35.8,32.0,37.0,34.2,32.0,98,94,85,0.00,40.00,13,8,19,0.00
2013-1-7,38.0,33.1,29.0,34.0,31.1,28.0,98,92,77,0.00,40.00,14,6,20,0.00
2013-1-8,46.0,33.9,25.0,38.0,29.1,25.0,98,84,51,0.00,40.00,9,2,14,0.00
2013-1-9,49.0,40.3,32.0,45.0,37.0,30.0,97,88,67,0.00,40.00,19,7,29,0.00
2013-1-10,44.0,36.3,28.0,40.0,33.1,28.0,99,88,69,0.00,40.00,6,1,11,0.00
2013-1-11,58.0,48.9,40.0,57.0,45.9,33.0,99,90,69,0.00,40.00,18,3,27,0.00
2013-1-12,62.0,53.9,47.0,58.0,52.8,47.0,99,95,85,0.00,40.00,12,3,19,0.00
2013-1-13,65.0,51.9,38.0,63.0,51.2,38.0,99,97,89,0.00,40.00,17,5,31,0.00
2013-1-14,38.0,31.3,29.0,38.0,28.9,25.0,99,90,81,0.00,40.00,12,5,24,0.00
2013-1-15,35.0,30.1,28.0,28.0,26.2,24.0,89,84,68,0.00,40.00,8,3,12,0.00
2013-1-16,37.0,33.0,30.0,30.0,27.5,24.0,90,80,64,0.00,40.00,12,5,22,0.00
2013-1-17,37.0,34.9,27.0,34.0,29.2,21.0,89,79,66,0.00,40.00,18,7,27,0.00
2013-1-18,37.0,29.2,22.0,23.0,18.8,11.0,84,65,54,0.00,40.00,21,9,37,0.00
2013-1-19,53.0,44.9,35.0,32.0,27.8,23.0,64,51,43,0.00,40.00,27,14,37,0.00
2013-1-20,50.0,30.7,22.0,37.0,20.3,13.0,81,65,49,0.00,40.00,27,13,43,0.00
2013-1-21,24.0,19.5,12.0,17.0,12.5,6.0,91,73,59,0.00,40.00,20,10,29,0.00
2013-1-22,12.0,9.6,8.0,10.0,6.7,4.0,98,87,74,0.00,40.00,19,10,26,0.00
2013-1-23,18.0,12.9,8.0,14.0,9.6,5.0,94,86,77,0.00,40.00,12,7,20,0.00
2013-1-24,23.0,17.5,11.0,18.0,12.2,8.0,98,79,56,0.00,40.00,15,6,25,0.00
2013-1-25,21.0,17.1,12.0,20.0,15.4,9.0,96,92,87,0.00,40.00,4,1,8,0.00
2013-1-26,26.0,23.3,19.0,26.0,22.1,18.0,99,95,88,0.00,40.00,11,4,17,0.00
2013-1-27,33.0,24.5,11.0,29.0,20.4,11.0,97,84,64,0.00,40.00,11,2,14,0.00
2013-1-28,51.0,42.1,30.0,51.0,41.9,29.0,100,98,95,0.00,40.00,13,-10,21,0.00
2013-1-29,63.0,51.9,40.0,60.0,51.5,40.0,100,98,88,0.00,40.00,19,5,28,0.00
2013-1-30,64.0,58.1,39.0,61.0,55.9,37.0,98,92,83,0.00,40.00,26,10,39,0.00
2013-1-31,39.0,25.3,20.0,38.0,21.6,13.0,96,85,66,0.00,40.00,21,13,34,0.00
2013-2-1,20.0,16.4,13.0,17.0,14.0,11.0,99,90,74,0.00,40.00,17,11,29,0.00
2013-2-2,25.0,19.6,14.0,24.0,17.9,10.0,99,92,83,0.00,40.00,12,5,19,0.00
2013-2-3,25.0,20.5,16.0,24.0,19.5,16.0,99,95,83,0.00,40.00,15,6,22,0.00
2013-2-4,29.0,22.9,19.0,28.0,22.4,18.0,99,97,95,0.00,40.00,11,4,14,0.00
2013-2-5,31.0,27.1,23.0,30.0,25.6,23.0,99,93,79,0.00,40.00,8,2,18,0.00
2013-2-6,33.0,27.7,20.0,30.0,22.4,17.0,98,81,57,0.00,40.00,11,4,20,0.00
2013-2-7,48.0,33.6,20.0,33.0,26.8,18.0,93,77,52,0.00,40.00,4,2,11,0.00
2013-2-8,41.0,32.9,27.0,40.0,32.1,27.0,99,96,87,0.00,40.00,18,9,34,0.00
2013-2-9,36.0,27.8,21.0,32.0,26.2,20.0,98,93,79,0.00,40.00,13,4,23,0.00
2013-2-10,54.0,36.5,21.0,38.0,27.3,20.0,98,73,39,0.00,40.00,6,2,17,0.00
2013-2-11,53.0,44.2,35.0,50.0,38.9,29.0,96,81,64,0.00,40.00,24,13,43,0.00
2013-2-12,39.0,33.5,28.0,30.0,28.3,26.0,94,81,70,0.00,40.00,17,7,24,0.00
2013-2-13,40.0,31.3,26.0,38.0,29.7,25.0,97,93,79,0.00,40.00,9,2,14,0.00
2013-2-14,42.0,34.5,25.0,42.0,33.8,25.0,99,97,88,0.00,40.00,18,6,29,0.00
2013-2-15,38.0,32.6,28.0,35.0,29.7,23.0,95,89,78,0.00,40.00,20,6,29,0.00
2013-2-16,39.0,26.6,21.0,36.0,23.9,20.0,99,90,70,0.00,40.00,11,4,19,0.00
2013-2-17,30.0,20.0,13.0,25.0,17.0,11.0,99,88,66,0.00,40.00,13,7,23,0.00
2013-2-18,47.0,28.6,9.0,37.0,21.2,8.0,96,76,51,0.00,40.00,5,2,17,0.00
2013-2-19,50.0,33.9,19.0,44.0,31.8,15.0,98,92,57,0.00,40.00,25,12,39,0.00
2013-2-20,23.0,20.5,18.0,20.0,17.7,15.0,99,88,78,0.00,40.00,17,10,26,0.00
2013-2-21,27.0,21.8,19.0,22.0,19.7,18.0,97,91,79,0.00,40.00,12,5,20,0.00
2013-2-22,40.0,31.5,20.0,40.0,30.6,19.0,98,96,91,0.00,40.00,7,2,13,0.00
2013-2-23,38.0,34.9,31.0,37.0,33.0,29.0,96,92,78,0.00,40.00,11,4,17,0.00
2013-2-24,37.0,32.3,28.0,32.0,28.0,25.0,91,84,72,0.00,40.00,12,6,21,0.00
2013-2-25,44.0,34.3,24.0,39.0,29.2,24.0,98,83,54,0.00,40.00,8,2,12,0.00
2013-2-26,40.0,34.6,27.0,38.0,32.1,26.0,98,90,71,0.00,40.00,6,2,17,0.00
2013-2-27,44.0,39.9,35.0,43.0,39.3,35.0,99,98,94,0.00,40.00,16,9,23,0.00
2013-2-28,36.0,34.5,32.0,36.0,34.3,32.0,99,98,98,0.00,40.00,15,8,24,0.00
2013-3-1,32.0,29.1,27.0,32.0,28.8,27.0,100,98,96,0.00,40.00,13,8,22,0.00
2013-3-2,34.0,27.5,25.0,33.0,27.1,25.0,98,98,97,0.00,40.00,13,7,20,0.00
2013-3-3,27.0,25.4,24.0,26.0,24.5,22.0,98,96,87,0.00,40.00,11,7,17,0.00
2013-3-4,37.0,28.5,22.0,32.0,25.2,21.0,96,87,70,0.00,40.00,9,4,14,0.00
2013-3-5,45.0,32.3,20.0,34.0,25.5,19.0,97,78,39,0.00,40.00,6,2,12,0.00
2013-3-6,46.0,38.8,35.0,36.0,32.4,30.0,94,78,60,0.00,40.00,12,4,17,0.00
2013-3-7,39.0,35.7,32.0,38.0,35.1,31.0,97,96,95,0.00,40.00,10,5,14,0.00
2013-3-8,38.0,32.6,28.0,37.0,31.9,28.0,98,97,95,0.00,40.00,7,3,13,0.00
2013-3-9,57.0,39.7,23.0,43.0,31.8,23.0,99,77,45,0.00,40.00,5,1,11,0.00
2013-3-10,68.0,58.7,49.0,40.0,37.4,33.0,60,45,34,0.00,40.00,14,3,23,0.00
2013-3-11,62.0,53.9,44.0,55.0,47.1,37.0,97,81,40,0.00,40.00,20,4,30,0.00
2013-3-12,44.0,38.2,35.0,43.0,36.5,32.0,96,93,88,0.00,40.00,16,9,24,0.00
2013-3-13,35.0,32.1,29.0,33.0,28.2,20.0,96,85,61,0.00,40.00,17,10,29,0.00
2013-3-14,39.0,32.0,28.0,26.0,22.8,19.0,87,68,55,0.00,40.00,14,8,26,0.00
2013-3-15,46.0,37.8,31.0,38.0,33.0,27.0,98,83,71,0.00,40.00,12,6,19,0.00
2013-3-16,37.0,33.2,31.0,37.0,33.0,30.0,99,99,96,0.00,40.00,10,2,16,0.00
2013-3-17,34.0,31.2,28.0,31.0,27.8,23.0,97,87,71,0.00,40.00,11,5,17,0.00
2013-3-18,51.0,32.7,27.0,50.0,29.7,23.0,98,88,84,0.00,40.00,4,-127,13,0.00
2013-3-25,66.0,60.8,55.0,66.0,60.8,55.0,99,99,99,0.00,40.00,7,-496,11,0.00
2013-3-27,83.0,73.4,61.0,83.0,73.3,60.0,97,97,97,0.00,40.00,2,2,4,0.00
2013-10-15,-200.0,0.0,200.0,-99.9,-99.9,-99.9,99,95,91,0.00,40.00,4,1,11,0.00
2013-10-16,-200.0,0.0,200.0,-99.9,-99.9,-99.9,99,99,98,0.00,40.00,1,0,3,0.00
2013-10-20,-200.0,0.0,200.0,-99.9,-99.9,-99.9,88,68,48,0.00,40.00,11,3,20,0.00
2013-10-21,-200.0,0.0,200.0,-99.9,-99.9,-99.9,98,74,45,0.00,40.00,16,6,25,0.00
2013-10-22,-200.0,0.0,200.0,-99.9,-99.9,-99.9,99,74,51,0.00,40.00,14,7,21,0.00
2013-10-23,-200.0,0.0,200.0,-99.9,-99.9,-99.9,99,87,60,0.00,40.00,19,4,26,0.00
2013-10-24,-200.0,0.0,200.0,-99.9,-99.9,-99.9,99,90,65,0.00,40.00,14,8,24,0.00
2013-10-25,-200.0,0.0,200.0,-99.9,-99.9,-99.9,99,77,52,0.00,40.00,9,5,15,0.00
2013-10-26,-200.0,0.0,200.0,-99.9,-99.9,-99.9,98,69,56,0.00,40.00,22,12,34,0.00
2013-10-27,-200.0,0.0,200.0,-99.9,-99.9,-99.9,98,76,54,0.00,40.00,10,5,16,0.00
2013-10-28,-200.0,0.0,200.0,-99.9,-99.9,-99.9,99,87,60,0.00,40.00,7,1,12,0.00
2013-10-29,-200.0,0.0,200.0,-99.9,-99.9,-99.9,99,84,48,0.00,40.00,6,1,9,0.00
2013-10-30,-200.0,0.0,200.0,-99.9,-99.9,-99.9,99,83,56,0.00,40.00,8,1,13,0.00
2013-10-31,-200.0,0.0,200.0,-99.9,-99.9,-99.9,99,95,83,0.00,40.00,12,6,26,0.00
2013-11-1,-200.0,0.0,200.0,-99.9,-99.9,-99.9,99,85,73,0.00,40.00,24,10,35,0.00
2013-11-23,-200.0,0.0,200.0,-99.9,-99.9,-99.9,0,0,100,0.00,40.00,12,12,21,0.00
2013-11-25,35.0,34.7,33.0,23.0,20.5,20.0,65,55,52,0.00,40.00,14,7,20,0.00
2013-11-26,37.0,34.3,32.0,33.0,31.1,21.0,99,88,56,0.00,40.00,11,4,16,0.00
2013-11-27,35.0,29.7,26.0,35.0,25.0,17.0,99,83,67,0.00,40.00,17,10,25,0.00
2013-11-28,31.0,26.2,21.0,26.0,20.8,16.0,93,79,67,0.00,40.00,9,6,16,0.00
2013-11-29,35.0,28.8,24.0,30.0,25.5,22.0,96,87,77,0.00,40.00,4,1,7,0.00
2013-11-30,43.0,31.0,24.0,31.0,25.3,-99.9,97,84,60,0.00,40.00,9,1,14,0.00
2013-12-1,44.0,36.6,32.0,36.0,33.1,30.0,96,87,72,0.00,40.00,7,1,9,0.00
2013-12-2,40.0,36.4,34.0,39.0,35.6,34.0,98,97,95,0.00,40.00,4,1,9,0.00
2013-12-8,30.0,25.5,20.0,29.0,22.4,18.0,95,87,73,0.00,40.00,4,1,9,0.00
2013-12-9,36.0,32.0,26.0,36.0,30.5,23.0,99,94,87,0.00,40.00,15,8,24,0.00
2013-12-10,29.0,24.7,22.0,24.0,17.5,11.0,88,74,46,0.00,40.00,22,10,30,0.00
2013-12-11,27.0,22.3,19.0,26.0,19.8,14.0,99,89,73,0.00,40.00,12,7,21,0.00
2013-12-12,21.0,17.2,11.0,14.0,10.1,6.0,95,74,54,0.00,40.00,14,8,21,0.00
2013-12-13,33.0,25.8,19.0,24.0,17.9,8.0,87,71,61,0.00,40.00,9,4,15,0.00
2013-12-14,33.0,29.2,26.0,33.0,26.8,-99.9,99,95,87,0.00,40.00,2,0,6,0.00